1292025629875,1.30425
1292025689875,1.30233
1292025749875,1.29504
1292025809875,1.29802
1292025869875,1.28861
1292025929875,1.30034
1292025989875,1.30404
1292026049875,1.29768
1292026109875,1.30877
1292026169875,1.29657
1292026229875,1.30477
1292026289875,1.30673
1292026349875,1.29641
1292026409875,1.30398
1292026469875,1.30271
1292026529875,1.31216
1292026589875,1.29915
1292026649875,1.30313
1292026709875,1.29247
1292026769875,1.30068
1292026829875,1.31224
1292026889875,1.29726
1292026949875,1.29770
1292027009875,1.29215
1292027069875,1.31359
1292027129875,1.29090
1292027189875,1.31312
1292027249875,1.30037
1292027309875,1.30225
1292027369875,1.30302
1292027429875,1.30110
1292027489875,1.30397
1292027549875,1.31602
1292027609875,1.30317
1292027669875,1.29636
1292027729875,1.30592
1292027789875,1.30498
1292027849875,1.29593
1292027909875,1.30256
1292027969875,1.30047
1292028029875,1.29737
1292028089875,1.30321
1292028149875,1.30285
1292028209875,1.30697
1292028269875,1.30610
1292028329875,1.30242
1292028389875,1.29780
1292028449875,1.30107
1292028509875,1.30858
1292028569875,1.31288
1292028629875,1.29938
1292028689875,1.29959
1292028749875,1.31006
1292028809875,1.30722
1292028869875,1.31053
1292028929875,1.31563
1292028989875,1.30423
1292029049875,1.31578
1292029109875,1.29262
1292029169875,1.30503
1292029229885,1.30231
1292029289885,1.31144
1292029349885,1.30315
1292029409885,1.31676
1292029469885,1.30278
1292029529885,1.31313
1292029589885,1.31382
1292029649885,1.31091
1292029709885,1.30920
1292029769885,1.31302
1292029829885,1.31283
1292029889885,1.31006
1292029949885,1.31388
1292030009885,1.31323
1292030069885,1.31665
1292030129885,1.30239
1292030189885,1.31213
1292030249885,1.30756
1292030309885,1.31284
1292030369885,1.30541
1292030429885,1.30978
1292030489885,1.30698
1292030549885,1.32040
1292030609885,1.30377
1292030669885,1.32206
1292030729885,1.32161
1292030789885,1.30487
1292030849885,1.32392
1292030909885,1.31574
1292030969885,1.31916
1292031029885,1.30634
1292031089885,1.30380
1292031149885,1.30907
1292031209885,1.31342
1292031269885,1.31477
1292031329885,1.30716
1292031389885,1.32008
1292031449885,1.30313
1292031509885,1.31839
1292031569885,1.32454
1292031629885,1.31811
1292031689885,1.30967
1292031749885,1.32109
1292031809885,1.30448
1292031869885,1.32528
1292031929885,1.32263
1292031989885,1.34538
1292032049885,1.31546
1292032109885,1.32082
1292032169885,1.33012
1292032229885,1.31465
1292032289885,1.31467
1292032349885,1.31862
1292032409885,1.30479
1292032469885,1.31544
1292032529885,1.30973
1292032589885,1.32114
1292032649885,1.32087
1292032709885,1.31153
1292032769885,1.31847
1292032829896,1.31904
1292032889896,1.32163
1292032949896,1.31618
1292033009896,1.31748
1292033069896,1.30869
1292033129896,1.31851
1292033189896,1.30859
1292033249896,1.33123
1292033309896,1.30823
1292033369896,1.32215
1292033429896,1.31661
1292033489896,1.30833
1292033549896,1.31240
1292033609896,1.30913
1292033669896,1.31808
1292033729896,1.33051
1292033789896,1.31359
1292033849896,1.31590
1292033909896,1.31251
1292033969896,1.31937
1292034029896,1.30854
1292034089896,1.32334
1292034149896,1.32299
1292034209896,1.32348
1292034269896,1.31908
1292034329896,1.31492
1292034389896,1.32686
1292034449896,1.32275
1292034509896,1.32327
1292034569896,1.32521
1292034629896,1.32268
1292034689896,1.32434
1292034749896,1.32118
1292034809896,1.31916
1292034869896,1.31982
1292034929896,1.32429
1292034989896,1.32514
1292035049896,1.31399
1292035109896,1.31513
1292035169896,1.31842
1292035229896,1.31821
1292035289896,1.32940
1292035349896,1.32806
1292035409896,1.31994
1292035469896,1.31461
1292035529896,1.32941
1292035589896,1.32562
1292035649896,1.32831
1292035709896,1.32689
1292035769896,1.32999
1292035829896,1.33105
1292035889896,1.32582
1292035949896,1.32491
1292036009896,1.31919
1292036069896,1.32643
1292036129896,1.32071
1292036189896,1.31366
1292036249896,1.31573
1292036309896,1.31832
1292036369896,1.32703
1292036429906,1.32526
1292036489906,1.31718
1292036549906,1.33177
1292036609906,1.33469
1292036669906,1.31479
1292036729906,1.32476
1292036789906,1.32876
1292036849906,1.32315
1292036909906,1.32409
1292036969906,1.31817
1292037029906,1.32852
1292037089906,1.33611
1292037149906,1.32725
1292037209906,1.32233
1292037269906,1.32962
1292037329906,1.31450
1292037389906,1.32467
1292037449906,1.32511
1292037509906,1.32791
1292037569906,1.32633
1292037629906,1.32510
1292037689906,1.32558
1292037749906,1.32982
1292037809906,1.31723
1292037869906,1.32488
1292037929906,1.32748
1292037989906,1.34077
1292038049906,1.33967
1292038109906,1.32384
1292038169906,1.33417
1292038229906,1.33220
1292038289906,1.33386
1292038349906,1.34405
1292038409906,1.32969
1292038469906,1.33411
1292038529906,1.32133
1292038589906,1.32984
1292038649906,1.32927
1292038709906,1.33046
1292038769906,1.33693
1292038829906,1.32174
1292038889906,1.34025
1292038949906,1.32441
1292039009906,1.33643
1292039069906,1.32704
1292039129906,1.32031
1292039189906,1.33303
1292039249906,1.33270
1292039309906,1.33144
1292039369906,1.32876
1292039429906,1.33343
1292039489906,1.32833
1292039549906,1.33772
1292039609906,1.33375
1292039669906,1.34113
1292039729906,1.32658
1292039789906,1.32741
1292039849906,1.32997
1292039909906,1.33037
1292039969906,1.33089
1292040029917,1.33004
1292040089917,1.33415
1292040149917,1.32836
1292040209917,1.32994
1292040269917,1.33631
1292040329917,1.34302
1292040389917,1.32235
1292040449917,1.33260
1292040509917,1.33171
1292040569917,1.33075
1292040629917,1.33261
1292040689917,1.33165
1292040749917,1.32816
1292040809917,1.32964
1292040869917,1.32622
1292040929917,1.34700
1292040989917,1.32353
1292041049917,1.33550
1292041109917,1.32355
1292041169917,1.34355
1292041229917,1.32298
1292041289917,1.33151
1292041349917,1.33453
1292041409917,1.34408
1292041469917,1.33370
1292041529917,1.32917
1292041589917,1.32382
1292041649917,1.33215
1292041709917,1.33509
1292041769917,1.33578
1292041829917,1.34362
1292041889917,1.33230
1292041949917,1.33822
1292042009917,1.33362
1292042069917,1.32832
1292042129917,1.36277
1292042189917,1.33753
1292042249917,1.33585
1292042309917,1.32491
1292042369917,1.32650
1292042429917,1.32545
1292042489917,1.33419
1292042549917,1.33922
1292042609917,1.34260
1292042669917,1.33775
1292042729917,1.33871
1292042789917,1.34070
1292042849917,1.33690
1292042909917,1.33183
1292042969917,1.34419
1292043029917,1.33330
1292043089917,1.33613
1292043149917,1.34797
1292043209917,1.33751
1292043269917,1.34896
1292043329917,1.34320
1292043389917,1.33302
1292043449917,1.33475
1292043509917,1.33429
1292043569917,1.32986
1292043629927,1.32938
1292043689927,1.34024
1292043749927,1.33517
1292043809927,1.33242
1292043869927,1.33860
1292043929927,1.33077
1292043989927,1.34284
1292044049927,1.34002
1292044109927,1.33161
1292044169927,1.34110
1292044229927,1.34445
1292044289927,1.33748
1292044349927,1.33993
1292044409927,1.33528
1292044469927,1.32574
1292044529927,1.34097
1292044589927,1.34332
1292044649927,1.33959
1292044709927,1.33621
1292044769927,1.33475
1292044829927,1.34800
1292044889927,1.33083
1292044949927,1.33999
1292045009927,1.34056
1292045069927,1.35569
1292045129927,1.33094
1292045189927,1.34261
1292045249927,1.34482
1292045309927,1.33095
1292045369927,1.33875
1292045429927,1.33863
1292045489927,1.34691
1292045549927,1.34583
1292045609927,1.33216
1292045669927,1.33480
1292045729927,1.33996
1292045789927,1.33729
1292045849927,1.33341
1292045909927,1.33584
1292045969927,1.34335
1292046029927,1.33136
1292046089927,1.33124
1292046149927,1.33723
1292046209927,1.34265
1292046269927,1.33859
1292046329927,1.32183
1292046389927,1.33011
1292046449927,1.32655
1292046509927,1.33316
1292046569927,1.33555
1292046629927,1.33566
1292046689927,1.33703
1292046749927,1.33417
1292046809927,1.33446
1292046869927,1.33569
1292046929927,1.32946
1292046989927,1.33281
1292047049927,1.32301
1292047109927,1.33107
1292047169927,1.33618
1292047229938,1.33564
1292047289938,1.33646
1292047349938,1.33445
1292047409938,1.33738
1292047469938,1.33317
1292047529938,1.33862
1292047589938,1.32696
1292047649938,1.33019
1292047709938,1.32277
1292047769938,1.33984
1292047829938,1.32694
1292047889938,1.32731
1292047949938,1.33082
1292048009938,1.32326
1292048069938,1.32985
1292048129938,1.32359
1292048189938,1.34331
1292048249938,1.32853
1292048309938,1.32756
1292048369938,1.33112
1292048429938,1.33883
1292048489938,1.32474
1292048549938,1.32414
1292048609938,1.33820
1292048669938,1.31805
1292048729938,1.32161
1292048789938,1.32760
1292048849938,1.33205
1292048909938,1.33293
1292048969938,1.33104
1292049029938,1.32851
1292049089938,1.35452
1292049149938,1.33769
1292049209938,1.33068
1292049269938,1.32992
1292049329938,1.32187
1292049389938,1.32366
1292049449938,1.32495
1292049509938,1.33647
1292049569938,1.33165
1292049629938,1.32804
1292049689938,1.32770
1292049749938,1.32417
1292049809938,1.33916
1292049869938,1.32366
1292049929938,1.32750
1292049989938,1.32771
1292050049938,1.34035
1292050109938,1.33629
1292050169938,1.32535
1292050229938,1.33141
1292050289938,1.34044
1292050349938,1.33168
1292050409938,1.33844
1292050469938,1.33583
1292050529938,1.33102
1292050589938,1.34138
1292050649938,1.34317
1292050709938,1.33289
1292050769938,1.33692
1292050829949,1.32626
1292050889949,1.34177
1292050949949,1.33877
1292051009949,1.33470
1292051069949,1.33851
1292051129949,1.33787
1292051189949,1.33400
1292051249949,1.32329
1292051309949,1.33758
1292051369949,1.32737
1292051429949,1.34026
1292051489949,1.33161
1292051549949,1.32705
1292051609949,1.33879
1292051669949,1.33255
1292051729949,1.33311
1292051789949,1.33662
1292051849949,1.33128
1292051909949,1.32558
1292051969949,1.33048
1292052029949,1.34823
1292052089949,1.33468
1292052149949,1.34097
1292052209949,1.33173
1292052269949,1.33185
1292052329949,1.33653
1292052389949,1.34411
1292052449949,1.33602
1292052509949,1.34423
1292052569949,1.33484
1292052629949,1.33559
1292052689949,1.35251
1292052749949,1.34124
1292052809949,1.33019
1292052869949,1.33475
1292052929949,1.33378
1292052989949,1.33582
1292053049949,1.32795
1292053109949,1.33490
1292053169949,1.33832
1292053229949,1.32938
1292053289949,1.32684
1292053349949,1.33057
1292053409949,1.32168
1292053469949,1.32750
1292053529949,1.32597
1292053589949,1.33921
1292053649949,1.33133
1292053709949,1.33326
1292053769949,1.33151
1292053829949,1.32947
1292053889949,1.33650
1292053949949,1.32226
1292054009949,1.33565
1292054069949,1.33548
1292054129949,1.32484
1292054189949,1.33078
1292054249949,1.33030
1292054309949,1.33697
1292054369949,1.33042
1292054429960,1.33676
1292054489960,1.33517
1292054549960,1.33415
1292054609960,1.32937
1292054669960,1.34707
1292054729960,1.33490
1292054789960,1.33831
1292054849960,1.33507
1292054909960,1.33124
1292054969960,1.33299
1292055029960,1.34151
1292055089960,1.32803
1292055149960,1.31985
1292055209960,1.33032
1292055269960,1.33655
1292055329960,1.34296
1292055389960,1.32718
1292055449960,1.34220
1292055509960,1.33419
1292055569960,1.33795
1292055629960,1.33614
1292055689960,1.33948
1292055749960,1.34119
1292055809960,1.33417
1292055869960,1.33901
1292055929960,1.32596
1292055989960,1.33452
1292056049960,1.34006
1292056109960,1.33880
1292056169960,1.34723
1292056229960,1.34303
1292056289960,1.34179
1292056349960,1.33991
1292056409960,1.34348
1292056469960,1.33330
1292056529960,1.33117
1292056589960,1.33335
1292056649960,1.33097
1292056709960,1.34184
1292056769960,1.33489
1292056829960,1.34933
1292056889960,1.34462
1292056949960,1.33961
1292057009960,1.33482
1292057069960,1.34354
1292057129960,1.33822
1292057189960,1.34905
1292057249960,1.33259
1292057309960,1.33926
1292057369960,1.34251
1292057429960,1.34277
1292057489960,1.33945
1292057549960,1.33815
1292057609960,1.35775
1292057669960,1.35153
1292057729960,1.34620
1292057789960,1.34888
1292057849960,1.34288
1292057909960,1.33673
1292057969960,1.35419
1292058029971,1.34067
1292058089971,1.33678
1292058149971,1.33842
1292058209971,1.34255
1292058269971,1.33840
1292058329971,1.35352
1292058389971,1.34105
1292058449971,1.34283
1292058509971,1.34677
1292058569971,1.34434
1292058629971,1.33696
1292058689971,1.35000
1292058749971,1.34300
1292058809971,1.35496
1292058869971,1.34584
1292058929971,1.35504
1292058989971,1.34873
1292059049971,1.34577
1292059109971,1.34330
1292059169971,1.34933
1292059229971,1.37498
1292059289971,1.34751
1292059349971,1.34513
1292059409971,1.34648
1292059469971,1.34267
1292059529971,1.35542
1292059589971,1.35230
1292059649971,1.34096
1292059709971,1.34619
1292059769971,1.34206
1292059829971,1.35457
1292059889971,1.35401
1292059949971,1.35857
1292060009971,1.35732
1292060069971,1.35466
1292060129971,1.36129
1292060189971,1.34786
1292060249971,1.35025
1292060309971,1.35574
1292060369971,1.36272
1292060429971,1.35698
1292060489971,1.35369
1292060549971,1.36397
1292060609971,1.35185
1292060669971,1.35363
1292060729971,1.35392
1292060789971,1.35780
1292060849971,1.34598
1292060909971,1.35151
1292060969971,1.35685
1292061029971,1.36177
1292061089971,1.36198
1292061149971,1.35358
1292061209971,1.35891
1292061269971,1.36270
1292061329971,1.35646
1292061389971,1.36355
1292061449971,1.36244
1292061509971,1.36009
1292061569971,1.35354
1292061629983,1.34152
1292061689983,1.35094
1292061749983,1.35457
1292061809983,1.35681
1292061869983,1.34509
1292061929983,1.34965
1292061989983,1.35383
1292062049983,1.35195
1292062109983,1.34564
1292062169983,1.35237
1292062229983,1.35709
1292062289983,1.36174
1292062349983,1.34880
1292062409983,1.35070
1292062469983,1.35473
1292062529983,1.34994
1292062589983,1.35067
1292062649983,1.35861
1292062709983,1.34900
1292062769983,1.35663
1292062829983,1.35803
1292062889983,1.36024
1292062949983,1.35047
1292063009983,1.35926
1292063069983,1.35764
1292063129983,1.34868
1292063189983,1.35973
1292063249983,1.36968
1292063309983,1.35940
1292063369983,1.34720
1292063429983,1.34524
1292063489983,1.36454
1292063549983,1.38110
1292063609983,1.36884
1292063669983,1.35995
1292063729983,1.36313
1292063789983,1.35638
1292063849983,1.36143
1292063909983,1.35650
1292063969983,1.35348
1292064029983,1.35043
1292064089983,1.36686
1292064149983,1.36090
1292064209983,1.35715
1292064269983,1.36922
1292064329983,1.37640
1292064389983,1.36132
1292064449983,1.34783
1292064509983,1.36467
1292064569983,1.36680
1292064629983,1.35383
1292064689983,1.35518
1292064749983,1.35944
1292064809983,1.35796
1292064869983,1.36996
1292064929983,1.36657
1292064989983,1.34733
1292065049983,1.35475
1292065109983,1.35867
1292065169983,1.35961
1292065229995,1.34927
1292065289995,1.36549
1292065349995,1.37234
1292065409995,1.36655
1292065469995,1.36657
1292065529995,1.36322
1292065589995,1.36370
1292065649995,1.37050
1292065709995,1.35827
1292065769995,1.36537
1292065829995,1.36185
1292065889995,1.36610
1292065949995,1.34997
1292066009995,1.36577
1292066069995,1.36269
1292066129995,1.36390
1292066189995,1.35778
1292066249995,1.36223
1292066309995,1.36768
1292066369995,1.36556
1292066429995,1.35877
1292066489995,1.36007
1292066549995,1.36755
1292066609995,1.37546
1292066669995,1.36619
1292066729995,1.36670
1292066789995,1.34698
1292066849995,1.37134
1292066909995,1.35570
1292066969995,1.35100
1292067029995,1.35924
1292067089995,1.35528
1292067149995,1.35079
1292067209995,1.35616
1292067269995,1.35604
1292067329995,1.35491
1292067389995,1.35785
1292067449995,1.36119
1292067509995,1.33639
1292067569995,1.34966
1292067629995,1.34797
1292067689995,1.35009
1292067749995,1.35183
1292067809995,1.36049
1292067869995,1.35015
1292067929995,1.34608
1292067989995,1.34780
1292068049995,1.31801
1292068109995,1.34636
1292068169995,1.34971
1292068229995,1.34213
1292068289995,1.34838
1292068349995,1.34355
1292068409995,1.34848
1292068469995,1.35384
1292068529995,1.34594
1292068589995,1.33247
1292068649995,1.34198
1292068709995,1.34513
1292068769995,1.34872
1292068830007,1.35523
1292068890007,1.35071
1292068950007,1.34756
1292069010007,1.34325
1292069070007,1.35084
1292069130007,1.34362
1292069190007,1.34925
1292069250007,1.34265
1292069310007,1.33957
1292069370007,1.33251
1292069430007,1.34999
1292069490007,1.34883
1292069550007,1.34830
1292069610007,1.35111
1292069670007,1.34073
1292069730007,1.34347
1292069790007,1.34557
1292069850007,1.33708
1292069910007,1.33957
1292069970007,1.33564
1292070030007,1.34578
1292070090007,1.33683
1292070150007,1.34517
1292070210007,1.35414
1292070270007,1.34406
1292070330007,1.33832
1292070390007,1.35110
1292070450007,1.33841
1292070510007,1.34010
1292070570007,1.34920
1292070630007,1.33380
1292070690007,1.33934
1292070750007,1.34312
1292070810007,1.34237
1292070870007,1.34952
1292070930007,1.34428
1292070990007,1.34554
1292071050007,1.33761
1292071110007,1.34049
1292071170007,1.34516
1292071230007,1.34485
1292071290007,1.34908
1292071350007,1.35387
1292071410007,1.33180
1292071470007,1.33708
1292071530007,1.34554
1292071590007,1.33819
1292071650007,1.33217
1292071710007,1.32940
1292071770007,1.34155
1292071830007,1.34298
1292071890007,1.33698
1292071950007,1.33989
1292072010007,1.34294
1292072070007,1.33500
1292072130007,1.33711
1292072190007,1.34371
1292072250007,1.34450
1292072310007,1.33920
1292072370007,1.34638
1292072430019,1.33856
1292072490019,1.34500
1292072550019,1.34499
1292072610019,1.32872
1292072670019,1.33094
1292072730019,1.34510
1292072790019,1.33494
1292072850019,1.33913
1292072910019,1.35402
1292072970019,1.35034
1292073030019,1.32927
1292073090019,1.34164
1292073150019,1.33413
1292073210019,1.35192
1292073270019,1.33576
1292073330019,1.34288
1292073390019,1.33407
1292073450019,1.34026
1292073510019,1.34204
1292073570019,1.34705
1292073630019,1.33693
1292073690019,1.34074
1292073750019,1.34233
1292073810019,1.33208
1292073870019,1.33502
1292073930019,1.34583
1292073990019,1.34107
1292074050019,1.33025
1292074110019,1.34811
1292074170019,1.33727
1292074230019,1.35559
1292074290019,1.34475
1292074350019,1.33649
1292074410019,1.33516
1292074470019,1.33272
1292074530019,1.33484
1292074590019,1.34085
1292074650019,1.35355
1292074710019,1.34459
1292074770019,1.33815
1292074830019,1.34412
1292074890019,1.33898
1292074950019,1.33141
1292075010019,1.32972
1292075070019,1.33098
1292075130019,1.33467
1292075190019,1.34097
1292075250019,1.33470
1292075310019,1.34325
1292075370019,1.33161
1292075430019,1.34257
1292075490019,1.33914
1292075550019,1.35496
1292075610019,1.33369
1292075670019,1.35176
1292075730019,1.34188
1292075790019,1.34397
1292075850019,1.34157
1292075910019,1.34346
1292075970019,1.34714
1292076030031,1.33403
1292076090031,1.34531
1292076150031,1.33550
1292076210031,1.34595
1292076270031,1.33943
1292076330031,1.34325
1292076390031,1.34594
1292076450031,1.34580
1292076510031,1.34673
1292076570031,1.34558
1292076630031,1.33752
1292076690031,1.34799
1292076750031,1.35161
1292076810031,1.34820
1292076870031,1.35103
1292076930031,1.33065
1292076990031,1.34121
1292077050031,1.33915
1292077110031,1.35391
1292077170031,1.34437
1292077230031,1.35089
1292077290031,1.34627
1292077350031,1.35275
1292077410031,1.34364
1292077470031,1.34435
1292077530031,1.33912
1292077590031,1.34665
1292077650031,1.35023
1292077710031,1.35858
1292077770031,1.34335
1292077830031,1.35592
1292077890031,1.34153
1292077950031,1.34772
1292078010031,1.36370
1292078070031,1.34721
1292078130031,1.35637
1292078190031,1.35157
1292078250031,1.35477
1292078310031,1.35479
1292078370031,1.35344
1292078430031,1.35249
1292078490031,1.34868
1292078550031,1.34443
1292078610031,1.34241
1292078670031,1.34258
1292078730031,1.34483
1292078790031,1.34835
1292078850031,1.35456
1292078910031,1.35308
1292078970031,1.35348
1292079030031,1.35728
1292079090031,1.34483
1292079150031,1.34508
1292079210031,1.34560
1292079270031,1.35714
1292079330031,1.36534
1292079390031,1.36347
1292079450031,1.35536
1292079510031,1.35584
1292079570031,1.35133
1292079630043,1.35214
1292079690043,1.35560
1292079750044,1.35203
1292079810044,1.34779
1292079870043,1.34857
1292079930043,1.35607
1292079990043,1.34507
1292080050043,1.35782
1292080110043,1.34519
1292080170043,1.35105
1292080230043,1.34242
1292080290043,1.34163
1292080350043,1.34771
1292080410043,1.35568
1292080470043,1.34815
1292080530043,1.33805
1292080590043,1.33969
1292080650043,1.34337
1292080710043,1.35072
1292080770043,1.33842
1292080830043,1.34989
1292080890043,1.34464
1292080950043,1.36323
1292081010043,1.35249
1292081070044,1.34677
1292081130044,1.35036
1292081190044,1.34114
1292081250043,1.35566
1292081310043,1.34504
1292081370043,1.35210
1292081430043,1.35419
1292081490043,1.33642
1292081550043,1.33542
1292081610043,1.34464
1292081670043,1.33899
1292081730043,1.33712
1292081790043,1.34165
1292081850043,1.33355
1292081910043,1.33995
1292081970043,1.34195
1292082030043,1.33068
1292082090043,1.35056
1292082150043,1.33772
1292082210043,1.33915
1292082270043,1.34771
1292082330043,1.35285
1292082390043,1.34282
1292082450044,1.35143
1292082510044,1.33099
1292082570043,1.33863
1292082630043,1.33615
1292082690043,1.34834
1292082750043,1.34457
1292082810043,1.34211
1292082870043,1.33884
1292082930043,1.33466
1292082990043,1.33295
1292083050043,1.33523
1292083110043,1.33427
1292083170043,1.34615
1292083230055,1.35240
1292083290055,1.33784
1292083350055,1.33599
1292083410055,1.33333
1292083470055,1.33694
1292083530055,1.33734
1292083590055,1.33351
1292083650056,1.33699
1292083710056,1.34803
1292083770055,1.33760
1292083830055,1.34485
1292083890055,1.33316
1292083950055,1.33949
1292084010055,1.33852
1292084070055,1.33994
1292084130055,1.33533
1292084190055,1.34599
1292084250055,1.34881
1292084310055,1.34163
1292084370055,1.33523
1292084430055,1.35653
1292084490055,1.34675
1292084550055,1.33398
1292084610055,1.34245
1292084670055,1.33913
1292084730055,1.32966
1292084790055,1.33545
1292084850055,1.33803
1292084910055,1.33319
1292084970056,1.33597
1292085030056,1.34410
1292085090055,1.34005
1292085150055,1.33350
1292085210055,1.34437
1292085270055,1.34344
1292085330055,1.32670
1292085390055,1.34328
1292085450055,1.34489
1292085510055,1.34287
1292085570055,1.33567
1292085630055,1.33763
1292085690055,1.28256
1292085750055,1.32418
1292085810055,1.33909
1292085870055,1.34630
1292085930055,1.33774
1292085990055,1.33980
1292086050055,1.33694
1292086110055,1.34451
1292086170055,1.34996
1292086230055,1.29356
1292086290055,1.34462
1292086350056,1.33970
1292086410056,1.34065
1292086470055,1.33436
1292086530055,1.33877
1292086590055,1.32745
1292086650055,1.34065
1292086710055,1.34812
1292086770055,1.33638
1292086830067,1.35879
1292086890067,1.34452
1292086950067,1.34048
1292087010067,1.34222
1292087070067,1.33265
1292087130067,1.33804
1292087190067,1.34092
1292087250067,1.34994
1292087310067,1.33871
1292087370067,1.35009
1292087430067,1.33414
1292087490067,1.27348
1292087550067,1.34702
1292087610067,1.34025
1292087670067,1.29619
1292087730067,1.35214
1292087790067,1.33584
1292087850067,1.34889
1292087910067,1.34880
1292087970067,1.35143
1292088030067,1.33772
1292088090067,1.34042
1292088150067,1.33255
1292088210067,1.35168
1292088270067,1.34133
1292088330067,1.34127
1292088390067,1.34185
1292088450067,1.34015
1292088510067,1.34857
1292088570067,1.36045
1292088630067,1.33527
1292088690067,1.35287
1292088750067,1.35815
1292088810067,1.34749
1292088870067,1.35339
1292088930067,1.35136
1292088990067,1.33314
1292089050067,1.32416
1292089110067,1.32029
1292089170067,1.32259
1292089230067,1.34382
1292089290067,1.35281
1292089350067,1.34333
1292089410067,1.35141
1292089470067,1.35999
1292089530067,1.35185
1292089590067,1.34719
1292089650067,1.34932
1292089710067,1.35272
1292089770067,1.34764
1292089830067,1.35105
1292089890067,1.34386
1292089950067,1.34938
1292090010067,1.35716
1292090070067,1.35443
1292090130067,1.35571
1292090190067,1.35072
1292090250067,1.34880
1292090310067,1.36243
1292090370067,1.34175
1292090430079,1.36649
1292090490079,1.36455
1292090550079,1.35036
1292090610079,1.35218
1292090670079,1.34903
1292090730079,1.36007
1292090790079,1.35042
1292090850079,1.35992
1292090910079,1.34984
1292090970079,1.36401